Simultaneous Nadir Overpasses (SNOs) Predictions

Prediction of SNOs between METOP-A and TERRA Satellite Orbit:

Table of predicted SNOs for the next 14.0 days since TLE Epoch: 4/18/2015
Index Date (METOP-A) Time (METOP-A) Lat,Lon (METOP-A) SZA (METOP-A ) Date (TERRA) Time (TERRA) Lat,Lon (TERRA) SZA (TERRA ) Distance(km) Time Diff (sec)
1 04/18/2015 17:35:54 -81.34, 144.37 106.58 04/18/2015 17:36:04 -81.35, 144.21 106.59 2.64 10
2 04/18/2015 18:26:34 81.34, -48.18 73.43 04/18/2015 18:25:30 81.35, -48.05 73.42 2.34 64
3 04/21/2015 12:20:06 80.98, 30.67 70.88 04/21/2015 12:21:13 80.76, 34.21 71.09 67.44 67
4 04/21/2015 13:10:15 -81.34,-149.69 107.58 04/21/2015 13:10:16 -81.33,-149.58 107.57 1.91 1
5 04/21/2015 14:00:54 81.34, 18.15 72.47 04/21/2015 13:59:42 81.34, 18.13 72.43 0.69 72
6 04/24/2015 07:53:54 81.33, 109.14 71.48 04/24/2015 07:55:00 81.33, 109.17 71.51 0.68 66
7 04/24/2015 08:44:34 -81.34, -83.03 108.47 04/24/2015 08:44:26 -81.35, -82.86 108.45 2.95 8
8 04/27/2015 03:28:12 81.34, 175.72 70.61 04/27/2015 03:29:09 81.33, 175.61 70.62 2.15 57
9 04/27/2015 04:18:52 -81.34, -16.44 109.35 04/27/2015 04:18:35 -81.35, -16.40 109.35 0.89 17
10 04/29/2015 23:02:31 81.34,-117.76 69.75 04/29/2015 23:03:18 81.33,-117.83 69.76 1.25 47




NCC Satellite Simultaneous Nadir Overpasses (SNOs) Prediction Service
